Regional Weather Roundup
Issued by NWS

Home | Current Version | Previous Version | Graphics & Text | Print | Product List | Glossary On
Versions: 1 2 3 4 5 6 7 8 9 10 11 12 13 14 15 16 17 18 19 20 21 22 23 24 25 26 27 28 29 30 31 32 33 34 35 36 37 38 39 40 41 42 43 44 45 46 47 48 49 50
000
ASUS43 KIND 211109
RWRIN

WEATHER ROUNDUP FOR INDIANA
NATIONAL WEATHER SERVICE INDIANAPOLIS IN
700 AM EDT THU SEP 21 2017

NOTE: "FAIR" INDICATES FEW OR NO CLOUDS BELOW 12,000 FEET WITH NO
SIGNIFICANT WEATHER AND/OR OBSTRUCTIONS TO VISIBILITY.

* - STATION DOES NOT REPORT WEATHER SUCH AS PRECIPITATION OR FOG.

+ - STATION NOT QUALITY CONTROLLED BY THE NATIONAL WEATHER SERVICE.
    USE DATA WITH CAUTION...ESPECIALLY DEWPOINT AND RELATIVE
    HUMIDITY OBSERVATIONS.

INZ001>003-010>013-019-020-211200-
NORTHWEST INDIANA

CITY           SKY/WX    TMP DP  RH WIND       PRES   REMARKS
GARY /AIRPORT/ MOCLDY    73  68  83 S5        29.99R
KNOX *+        PTCLDY    70  68  94 S3        30.02R
LA PORTE +     PTCLDY    67  67  97 CALM      30.03R FOG
MICHIGAN CITY+ CLOUDY    70  68  94 S3        30.01R
MONTICELLO +   CLOUDY    70  69  95 S3        30.02R
RENSSELAER +   MOCLDY    70  64  83 CALM      30.02R
VALPARAISO     MOCLDY    72  69  90 S3        30.02R

$$

LMZ046-743>745-211200-
SOUTHERN LAKE MICHIGAN

STATION/POSITION TIME  TEMP    WIND        PRES    WAVE
                       AIR SEA DIR/SP/G            HT
                 (UTC) (F)     (DEG/KT/KT) (MB)    (FT)
BURNS HARBOR     1040   75     180/  8/ 11 1015.9R
MICHIGAN CITY    1040   73     170/  8/ 11   N/A
5NW MICH CITY    1100   71 69  180/  6/  8   N/A     0

$$

INZ004-005-014>016-021>024-211200-
NORTH CENTRAL INDIANA

CITY           SKY/WX    TMP DP  RH WIND       PRES   REMARKS
ELKHART        CLEAR     68  66  94 CALM      30.03  FOG
GOSHEN         PTCLDY    70  66  87 SE5       30.04R FOG
LOGANSPORT +   CLOUDY    66  64  94 SE5       30.04S FOG
PERU/GRISSOM   CLOUDY    70  70 100 S5        30.04R
ROCHESTER +    CLEAR     73  72  94 SE5       30.04R
SOUTH BEND     CLOUDY    69  69 100 S5        30.03R
WARSAW +       CLOUDY    70  70 100 CALM      30.05R FOG

$$

INZ006>009-017-018-025>027-211200-
NORTHEAST INDIANA

CITY           SKY/WX    TMP DP  RH WIND       PRES   REMARKS
AUBURN +       CLOUDY    66  64  94 CALM      30.07R FOG
FORT WAYNE     CLOUDY    68  66  93 CALM      30.07R
HUNTINGTON +   CLOUDY    69  68  96 S3        30.06R
KENDALLVILLE + CLOUDY    68  68 100 S3        30.07R FOG

$$

INZ028-029-035-036-043>045-051>053-211200-
WEST CENTRAL INDIANA

CITY           SKY/WX    TMP DP  RH WIND       PRES   REMARKS
GREENCASTLE +  CLOUDY    68  66  94 S3        30.06S FOG
LAFAYETTE      CLOUDY    69  69 100 CALM      30.02R
TERRE HAUTE    PTCLDY    68  66  93 SE3       30.03S FOG

$$

INZ030>032-037>040-046>048-054>057-064-065-211200-
CENTRAL INDIANA

CITY           SKY/WX    TMP DP  RH WIND       PRES   REMARKS
CP ATTERBURY + CLOUDY    66  64  94 CALM      30.08R FOG
COLUMBUS       CLOUDY    66  64  94 CALM      30.07  FOG
FISHERS *+     PTCLDY    66  66 100 SE3       30.07
FRANKFORT +    CLOUDY    70  68  95 CALM      30.06S FOG
GREENWOOD *+   CLOUDY    73  72  96 CALM      30.08R
INDIANAPOLIS   CLOUDY    71  69  93 SE7       30.06R
-EAGLE CREEK   CLOUDY    71  68  90 SE3       30.06R
KOKOMO +       CLOUDY    68  67  96 S5        30.06R FOG
MT COMFORT *+    N/A    N/A N/A N/A MISG        N/A
SHELBYVILLE    CLOUDY    68  65  90 CALM      30.07R
ZIONSVILLE +   CLOUDY    68  68 100 S5        30.07R FOG

$$

INZ033-034-041-042-049-050-058-059-211200-
EAST CENTRAL INDIANA

CITY           SKY/WX    TMP DP  RH WIND       PRES   REMARKS
MUNCIE         CLOUDY    73  68  84 S5        30.08R
RICHMOND +     CLOUDY    64  64 100 CALM      30.11R FOG

$$

INZ060-061-067>069-081>083-085>088-211200-
SOUTHWEST INDIANA

CITY           SKY/WX    TMP DP  RH WIND       PRES   REMARKS
EVANSVILLE     FOG       69  68  96 CALM      30.05R VSB 1/4
HUNTINGBURG +    N/A    N/A N/A N/A MISG        N/A
WASHINGTON +   CLEAR     71  69  94 SE6       30.04R

$$

INZ062-063-066-070>080-084-089>092-211200-
SOUTH CENTRAL AND SOUTHEAST INDIANA

CITY           SKY/WX    TMP DP  RH WIND       PRES   REMARKS
BEDFORD +      CLEAR     68  66  94 CALM      30.06R FOG
BLOOMINGTON    CLOUDY    67  64  90 CALM      30.07R FOG
MADISON *+       N/A     64  64 100 CALM      30.09R VSB 1/2
NORTH VERNON + PTCLDY    64  63  94 CALM      30.09R FOG
SEYMOUR +      CLEAR     66  66 100 CALM      30.07  FOG

$$





USA.gov is the U.S. government's official web portal to all federal, state and local government web resources and services.